EWG84A EDDM-EDDH

Flight info

Callsign EWG84A
Flight time 1h 1m
Altitude 36000
Route INPUD2S/26L INPUD Y102 UPALA M726 NARUS DCT ABGUS DCT DIRBO/N0370F230 T902 RARUP RARUP6A
Aircraft A320/M-SDE3FGHIRWY/LB1

Departure

Time 2026-05-07 11:13
Airport Munich Airport (EDDM)

Arrival

Time 2026-05-07 12:15
Airport Hamburg Helmut Schmidt Airport (EDDH)
Time Latitude Longitude Altitude Speed Heading
2026-05-07 10:50 48.35788 11.79248 1486 ft 0 kts 263°
2026-05-07 11:04 48.35788 11.79253 1474 ft 3 kts 263°
2026-05-07 11:04 48.35791 11.79293 1471 ft 4 kts 263°
2026-05-07 11:04 48.35794 11.79328 1485 ft 2 kts 263°
2026-05-07 11:04 48.35795 11.79365 1480 ft 4 kts 285°
2026-05-07 11:05 48.35783 11.79395 1471 ft 4 kts 340°
2026-05-07 11:05 48.35759 11.79401 1475 ft 2 kts 353°
2026-05-07 11:05 48.35757 11.79401 1476 ft 0 kts 353°
2026-05-07 11:07 48.35782 11.79397 1471 ft 9 kts 353°
2026-05-07 11:07 48.35844 11.79386 1485 ft 7 kts 353°
2026-05-07 11:08 48.35883 11.79379 1473 ft 5 kts 350°
2026-05-07 11:08 48.35928 11.79355 1479 ft 11 kts 338°
2026-05-07 11:08 48.36006 11.79330 1486 ft 12 kts 353°
2026-05-07 11:08 48.36088 11.79316 1480 ft 12 kts 354°
2026-05-07 11:09 48.36172 11.79305 1485 ft 11 kts
2026-05-07 11:09 48.36206 11.79375 1481 ft 7 kts 80°
2026-05-07 11:09 48.36210 11.79442 1476 ft 5 kts 82°
2026-05-07 11:09 48.36219 11.79535 1483 ft 15 kts 82°
2026-05-07 11:10 48.36231 11.79684 1485 ft 13 kts 84°
2026-05-07 11:10 48.36236 11.79751 1475 ft 0 kts 84°
2026-05-07 11:10 48.36236 11.79755 1475 ft 3 kts 84°
2026-05-07 11:10 48.36250 11.79935 1479 ft 24 kts 83°
2026-05-07 11:11 48.36267 11.80176 1480 ft 23 kts 84°
2026-05-07 11:11 48.36287 11.80404 1485 ft 21 kts 85°
2026-05-07 11:11 48.36337 11.80513 1485 ft 11 kts 353°
2026-05-07 11:11 48.36386 11.80413 1479 ft 19 kts 293°
2026-05-07 11:12 48.36455 11.80174 1477 ft 26 kts 294°
2026-05-07 11:12 48.36519 11.79927 1485 ft 24 kts 266°
2026-05-07 11:12 48.36500 11.79654 1477 ft 37 kts 263°
2026-05-07 11:12 48.36433 11.78811 1486 ft 123 kts 263°
2026-05-07 11:13 48.36305 11.77273 1833 ft 159 kts 264°
2026-05-07 11:13 48.36160 11.75566 2906 ft 168 kts 262°
2026-05-07 11:13 48.36019 11.73732 3385 ft 187 kts 263°
2026-05-07 11:13 48.35864 11.71712 3858 ft 202 kts 262°
2026-05-07 11:14 48.35688 11.69527 4308 ft 222 kts 262°
2026-05-07 11:14 48.35756 11.67115 4829 ft 241 kts 291°
2026-05-07 11:14 48.36762 11.65144 5784 ft 242 kts 324°
2026-05-07 11:14 48.38372 11.64142 6369 ft 263 kts 346°
2026-05-07 11:15 48.40270 11.63713 6961 ft 281 kts 352°
2026-05-07 11:15 48.42193 11.63042 7735 ft 287 kts 341°
2026-05-07 11:15 48.44109 11.62112 8616 ft 291 kts 339°
2026-05-07 11:15 48.46030 11.61109 9475 ft 295 kts 338°
2026-05-07 11:16 48.47982 11.60074 10265 ft 301 kts 338°
2026-05-07 11:16 48.50019 11.59000 10732 ft 319 kts 338°
2026-05-07 11:16 48.52175 11.57878 11178 ft 336 kts 339°
2026-05-07 11:16 48.54425 11.56715 11767 ft 347 kts 339°
2026-05-07 11:17 48.56735 11.55529 12519 ft 352 kts 339°
2026-05-07 11:17 48.59066 11.54338 13286 ft 357 kts 339°
2026-05-07 11:17 48.61437 11.53131 14009 ft 361 kts 339°
2026-05-07 11:17 48.63836 11.51934 14668 ft 366 kts 341°
2026-05-07 11:18 48.66367 11.51299 15354 ft 371 kts 351°
2026-05-07 11:18 48.68978 11.50858 16020 ft 375 kts 351°
2026-05-07 11:18 48.71585 11.50431 16688 ft 378 kts 351°
2026-05-07 11:18 48.74210 11.50011 17339 ft 382 kts 351°
2026-05-07 11:19 48.76871 11.49586 17993 ft 385 kts 351°
2026-05-07 11:19 48.79539 11.49156 18592 ft 388 kts 351°
2026-05-07 11:19 48.82264 11.48715 19147 ft 392 kts 351°
2026-05-07 11:19 48.84966 11.48278 19680 ft 396 kts 351°
2026-05-07 11:20 48.87717 11.47831 20237 ft 399 kts 351°
2026-05-07 11:20 48.90495 11.47379 20761 ft 403 kts 351°
2026-05-07 11:20 48.93300 11.46920 21301 ft 407 kts 351°
2026-05-07 11:20 48.96130 11.46455 21846 ft 411 kts 351°
2026-05-07 11:21 48.98635 11.46070 22314 ft 414 kts 352°
2026-05-07 11:21 49.01519 11.45667 22835 ft 418 kts 352°
2026-05-07 11:21 49.04475 11.45285 23365 ft 422 kts 353°
2026-05-07 11:21 49.07417 11.44915 23825 ft 426 kts 353°
2026-05-07 11:22 49.10373 11.44540 24260 ft 428 kts 352°
2026-05-07 11:22 49.13352 11.44153 24705 ft 431 kts 352°
2026-05-07 11:22 49.16138 11.43781 25108 ft 432 kts 352°
2026-05-07 11:22 49.19143 11.43373 25542 ft 435 kts 352°
2026-05-07 11:23 49.22208 11.42955 25977 ft 437 kts 352°
2026-05-07 11:23 49.25238 11.42543 26401 ft 439 kts 351°
2026-05-07 11:23 49.28293 11.42130 26810 ft 442 kts 351°
2026-05-07 11:23 49.31364 11.41718 27207 ft 444 kts 351°
2026-05-07 11:24 49.34449 11.41304 27579 ft 446 kts 351°
2026-05-07 11:24 49.37553 11.40886 27940 ft 449 kts 351°
2026-05-07 11:24 49.40666 11.40463 28299 ft 451 kts 351°
2026-05-07 11:24 49.43808 11.40035 28667 ft 454 kts 351°
2026-05-07 11:25 49.46959 11.39607 29000 ft 456 kts 351°
2026-05-07 11:25 49.50126 11.39180 29323 ft 459 kts 351°
2026-05-07 11:25 49.53317 11.38746 29661 ft 461 kts 351°
2026-05-07 11:25 49.56519 11.38306 29985 ft 464 kts 351°
2026-05-07 11:26 49.59748 11.37863 30256 ft 466 kts 351°
2026-05-07 11:26 49.62983 11.37424 30499 ft 468 kts 351°
2026-05-07 11:26 49.66233 11.36982 30751 ft 470 kts 351°
2026-05-07 11:26 49.68435 11.36681 30917 ft 471 kts 351°
2026-05-07 11:27 49.71662 11.36237 31153 ft 473 kts 351°
2026-05-07 11:27 49.74987 11.35781 31373 ft 474 kts 351°
2026-05-07 11:27 49.78276 11.35331 31598 ft 475 kts 352°
2026-05-07 11:27 49.81573 11.34883 31913 ft 474 kts 352°
2026-05-07 11:28 49.84850 11.34437 32245 ft 473 kts 351°
2026-05-07 11:28 49.88133 11.33986 32559 ft 473 kts 351°
2026-05-07 11:28 49.91406 11.33532 32875 ft 472 kts 351°
2026-05-07 11:28 49.94675 11.33074 33185 ft 471 kts 351°
2026-05-07 11:29 49.97938 11.32614 33493 ft 471 kts 351°
2026-05-07 11:29 50.01202 11.32158 33842 ft 471 kts 351°
2026-05-07 11:29 50.04463 11.31705 34118 ft 471 kts 351°
2026-05-07 11:29 50.07720 11.31255 34361 ft 470 kts 351°
2026-05-07 11:30 50.10984 11.30807 34596 ft 470 kts 351°
2026-05-07 11:30 50.14243 11.30358 34838 ft 470 kts 351°
2026-05-07 11:30 50.17501 11.29905 35085 ft 470 kts 352°
2026-05-07 11:30 50.20755 11.29447 35294 ft 469 kts 352°
2026-05-07 11:31 50.24044 11.28978 35523 ft 469 kts 352°
2026-05-07 11:31 50.27304 11.28512 35731 ft 469 kts 352°
2026-05-07 11:31 50.30559 11.28050 35911 ft 469 kts 352°
2026-05-07 11:31 50.33791 11.27596 35963 ft 464 kts 352°
2026-05-07 11:32 50.43388 11.26245 35966 ft 462 kts 352°
2026-05-07 11:33 50.49778 11.25339 35968 ft 461 kts 352°
2026-05-07 11:33 50.56214 11.24432 35976 ft 460 kts 352°
2026-05-07 11:34 50.62589 11.23529 35980 ft 460 kts 352°
2026-05-07 11:34 50.68957 11.22620 35993 ft 459 kts 352°
2026-05-07 11:35 50.75309 11.21712 36003 ft 458 kts 352°
2026-05-07 11:35 50.81653 11.20807 36040 ft 455 kts 354°
2026-05-07 11:36 50.87926 11.19906 36031 ft 451 kts 353°
2026-05-07 11:36 50.94343 11.18965 36000 ft 452 kts 353°
2026-05-07 11:37 51.00607 11.18050 36003 ft 452 kts 354°
2026-05-07 11:37 51.06865 11.17146 36004 ft 451 kts 354°
2026-05-07 11:38 51.13153 11.16240 35739 ft 450 kts 354°
2026-05-07 11:38 51.16270 11.15789 35156 ft 449 kts 354°
2026-05-07 11:38 51.19342 11.15341 34491 ft 449 kts 354°
2026-05-07 11:38 51.22492 11.14881 33800 ft 448 kts 354°
2026-05-07 11:39 51.25582 11.14428 33027 ft 447 kts 355°
2026-05-07 11:39 51.28682 11.13973 32259 ft 447 kts 355°
2026-05-07 11:39 51.31873 11.13506 31526 ft 444 kts 356°
2026-05-07 11:39 51.34918 11.13056 31002 ft 438 kts 356°
2026-05-07 11:40 51.37936 11.12608 30469 ft 432 kts 356°
2026-05-07 11:40 51.40900 11.12167 30097 ft 428 kts 356°
2026-05-07 11:40 51.43893 11.11726 29860 ft 420 kts 356°
2026-05-07 11:40 51.46755 11.11300 29557 ft 409 kts 356°
2026-05-07 11:41 51.49571 11.10882 29036 ft 403 kts 356°
2026-05-07 11:41 51.52381 11.10467 28448 ft 400 kts 356°
2026-05-07 11:41 51.55147 11.10058 27872 ft 397 kts 356°
2026-05-07 11:41 51.57891 11.09651 27304 ft 394 kts 356°
2026-05-07 11:42 51.60648 11.09241 26763 ft 391 kts 355°
2026-05-07 11:42 51.63385 11.08831 26234 ft 388 kts 355°
2026-05-07 11:42 51.66054 11.08434 25756 ft 385 kts 355°
2026-05-07 11:42 51.67823 11.08173 25433 ft 383 kts 355°
2026-05-07 11:43 51.70467 11.07784 24949 ft 380 kts 355°
2026-05-07 11:43 51.73119 11.07391 24474 ft 377 kts 354°
2026-05-07 11:43 51.75692 11.07006 24014 ft 374 kts 354°
2026-05-07 11:43 51.78307 11.06614 23546 ft 371 kts 354°
2026-05-07 11:44 51.80871 11.06230 23019 ft 368 kts 354°
2026-05-07 11:44 51.83411 11.05847 22506 ft 366 kts 354°
2026-05-07 11:44 51.85966 11.05457 22003 ft 363 kts 354°
2026-05-07 11:44 51.88540 11.05030 21496 ft 360 kts 353°
2026-05-07 11:45 51.91014 11.04535 21017 ft 358 kts 352°
2026-05-07 11:45 51.93504 11.03985 20530 ft 355 kts 352°
2026-05-07 11:45 51.96028 11.03411 20060 ft 353 kts 351°
2026-05-07 11:45 51.98442 11.02866 19615 ft 351 kts 351°
2026-05-07 11:46 52.00858 11.02330 19175 ft 349 kts 352°
2026-05-07 11:46 52.03258 11.01812 18758 ft 348 kts 352°
2026-05-07 11:46 52.05652 11.01301 18332 ft 346 kts 352°
2026-05-07 11:46 52.08070 11.00787 17862 ft 344 kts 352°
2026-05-07 11:47 52.10441 11.00280 17399 ft 342 kts 352°
2026-05-07 11:47 52.12795 10.99774 16944 ft 340 kts 352°
2026-05-07 11:47 52.15131 10.99270 16495 ft 338 kts 352°
2026-05-07 11:47 52.17486 10.98764 16107 ft 336 kts 352°
2026-05-07 11:48 52.19957 10.98234 16034 ft 336 kts 352°
2026-05-07 11:48 52.22305 10.97732 15807 ft 335 kts 352°
2026-05-07 11:48 52.24614 10.97238 15557 ft 333 kts 352°
2026-05-07 11:48 52.26932 10.96740 15307 ft 331 kts 352°
2026-05-07 11:49 52.29214 10.96245 15059 ft 330 kts 352°
2026-05-07 11:49 52.31467 10.95754 14814 ft 328 kts 352°
2026-05-07 11:49 52.33744 10.95261 14575 ft 327 kts 352°
2026-05-07 11:49 52.35993 10.94774 14329 ft 325 kts 352°
2026-05-07 11:50 52.38260 10.94281 14085 ft 324 kts 352°
2026-05-07 11:50 52.40494 10.93794 13844 ft 323 kts 352°
2026-05-07 11:50 52.42745 10.93304 13572 ft 322 kts 352°
2026-05-07 11:50 52.44845 10.92847 13320 ft 320 kts 352°
2026-05-07 11:51 52.46354 10.92517 13118 ft 319 kts 352°
2026-05-07 11:51 52.48582 10.92028 12869 ft 318 kts 352°
2026-05-07 11:51 52.50774 10.91547 12600 ft 317 kts 352°
2026-05-07 11:51 52.52947 10.91072 12341 ft 315 kts 352°
2026-05-07 11:52 52.55148 10.90590 12079 ft 314 kts 352°
2026-05-07 11:52 52.57308 10.90121 11820 ft 313 kts 352°
2026-05-07 11:52 52.59456 10.89655 11569 ft 311 kts 352°
2026-05-07 11:52 52.61632 10.89185 11310 ft 310 kts 353°
2026-05-07 11:53 52.63770 10.88722 11103 ft 309 kts 353°
2026-05-07 11:53 52.65893 10.88256 11040 ft 309 kts 353°
2026-05-07 11:53 52.68027 10.87783 11048 ft 309 kts 352°
2026-05-07 11:53 52.70157 10.87309 11050 ft 308 kts 353°
2026-05-07 11:54 52.72259 10.86841 11055 ft 304 kts 353°
2026-05-07 11:54 52.74361 10.86376 11053 ft 304 kts 353°
2026-05-07 11:54 52.76460 10.85911 11056 ft 304 kts 353°
2026-05-07 11:54 52.78561 10.85447 11057 ft 304 kts 353°
2026-05-07 11:55 52.80695 10.84801 11058 ft 305 kts 344°
2026-05-07 11:55 52.82683 10.83463 11058 ft 305 kts 331°
2026-05-07 11:55 52.84459 10.81468 11057 ft 305 kts 320°
2026-05-07 11:55 52.85934 10.78948 11056 ft 306 kts 309°
2026-05-07 11:56 52.87278 10.76224 11057 ft 306 kts 309°
2026-05-07 11:56 52.88627 10.73501 10850 ft 305 kts 310°
2026-05-07 11:56 52.89989 10.70761 10603 ft 305 kts 310°
2026-05-07 11:56 52.91344 10.68036 10394 ft 304 kts 310°
2026-05-07 11:57 52.92680 10.65341 10192 ft 303 kts 310°
2026-05-07 11:57 52.94039 10.62595 10003 ft 303 kts 310°
2026-05-07 11:57 52.95370 10.59895 9793 ft 302 kts 310°
2026-05-07 11:57 52.96712 10.57168 9571 ft 301 kts 310°
2026-05-07 11:58 52.98035 10.54476 9359 ft 300 kts 310°
2026-05-07 11:58 52.99375 10.51752 9139 ft 300 kts 310°
2026-05-07 11:58 53.00645 10.49181 8938 ft 299 kts 311°
2026-05-07 11:58 53.01981 10.46466 8729 ft 298 kts 311°
2026-05-07 11:59 53.03282 10.43806 8515 ft 297 kts 311°
2026-05-07 11:59 53.04583 10.41145 8305 ft 297 kts 311°
2026-05-07 11:59 53.05883 10.38485 8099 ft 296 kts 311°
2026-05-07 11:59 53.07212 10.35766 7887 ft 295 kts 311°
2026-05-07 12:00 53.08569 10.32980 7673 ft 294 kts 311°
2026-05-07 12:00 53.09480 10.31107 7531 ft 293 kts 311°
2026-05-07 12:00 53.11147 10.27672 7266 ft 292 kts 311°
2026-05-07 12:00 53.11992 10.25929 7143 ft 291 kts 311°
2026-05-07 12:01 53.13283 10.23269 6930 ft 291 kts 311°
2026-05-07 12:01 53.14558 10.20652 6730 ft 290 kts 311°
2026-05-07 12:01 53.15846 10.18010 6532 ft 290 kts 311°
2026-05-07 12:01 53.17114 10.15402 6328 ft 289 kts 311°
2026-05-07 12:02 53.18450 10.12648 6112 ft 289 kts 311°
2026-05-07 12:02 53.19689 10.10087 5897 ft 288 kts 311°
2026-05-07 12:02 53.20962 10.07450 5689 ft 287 kts 311°
2026-05-07 12:02 53.22215 10.04847 5478 ft 287 kts 311°
2026-05-07 12:03 53.23479 10.02218 5277 ft 287 kts 311°
2026-05-07 12:03 53.24729 9.99620 5075 ft 287 kts 311°
2026-05-07 12:03 53.25965 9.97048 4857 ft 278 kts 311°
2026-05-07 12:03 53.27148 9.94577 4652 ft 267 kts 311°
2026-05-07 12:04 53.28339 9.92090 4439 ft 256 kts 311°
2026-05-07 12:04 53.29384 9.89913 4232 ft 251 kts 311°
2026-05-07 12:04 53.30492 9.87608 4061 ft 250 kts 311°
2026-05-07 12:04 53.31583 9.85341 4000 ft 250 kts 311°
2026-05-07 12:05 53.32671 9.83075 4002 ft 250 kts 311°
2026-05-07 12:05 53.33759 9.80804 4003 ft 250 kts 311°
2026-05-07 12:05 53.34842 9.78534 4010 ft 249 kts 311°
2026-05-07 12:05 53.35208 9.77764 4007 ft 249 kts 311°
2026-05-07 12:06 53.35263 9.77648 4008 ft 249 kts 311°
2026-05-07 12:06 53.36091 9.75441 3661 ft 247 kts 302°
2026-05-07 12:07 53.37128 9.73240 3528 ft 241 kts 323°
2026-05-07 12:07 53.38547 9.71975 3375 ft 224 kts 349°
2026-05-07 12:07 53.40163 9.71375 3234 ft 211 kts 351°
2026-05-07 12:07 53.41461 9.70897 3088 ft 206 kts 351°
2026-05-07 12:08 53.42866 9.70374 3022 ft 207 kts 351°
2026-05-07 12:08 53.44269 9.69852 3002 ft 198 kts 351°
2026-05-07 12:08 53.45573 9.69396 2998 ft 183 kts 358°
2026-05-07 12:08 53.46794 9.69400 3052 ft 174 kts 11°
2026-05-07 12:09 53.47939 9.69898 3018 ft 168 kts 25°
2026-05-07 12:09 53.48947 9.70883 3014 ft 166 kts 44°
2026-05-07 12:09 53.49759 9.72260 3005 ft 167 kts 49°
2026-05-07 12:09 53.50540 9.73732 3005 ft 165 kts 51°
2026-05-07 12:10 53.51289 9.75200 3013 ft 167 kts 52°
2026-05-07 12:10 53.52038 9.76690 2991 ft 165 kts 51°
2026-05-07 12:10 53.52779 9.78171 2881 ft 166 kts 52°
2026-05-07 12:10 53.53517 9.79651 2675 ft 164 kts 51°
2026-05-07 12:11 53.54248 9.81115 2477 ft 162 kts 51°
2026-05-07 12:11 53.54963 9.82547 2255 ft 157 kts 51°
2026-05-07 12:11 53.55626 9.83891 2068 ft 142 kts 53°
2026-05-07 12:11 53.56243 9.85129 1863 ft 134 kts 52°
2026-05-07 12:12 53.56841 9.86321 1786 ft 134 kts 53°
2026-05-07 12:12 53.57432 9.87516 1616 ft 133 kts 52°
2026-05-07 12:12 53.58024 9.88712 1384 ft 132 kts 52°
2026-05-07 12:12 53.58600 9.89873 1121 ft 127 kts 52°
2026-05-07 12:13 53.59177 9.91052 1009 ft 127 kts 50°
2026-05-07 12:13 53.59740 9.92179 861 ft 125 kts 52°
2026-05-07 12:13 53.60305 9.93297 674 ft 126 kts 51°
2026-05-07 12:13 53.60857 9.94422 480 ft 124 kts 52°
2026-05-07 12:14 53.61419 9.95556 306 ft 127 kts 51°
2026-05-07 12:14 53.61978 9.96681 108 ft 125 kts 51°
2026-05-07 12:14 53.62507 9.97757 50 ft 104 kts 50°
2026-05-07 12:14 53.62860 9.98468 53 ft 55 kts 51°
2026-05-07 12:15 53.63089 9.98930 52 ft 45 kts 50°
2026-05-07 12:15 53.63257 9.99279 51 ft 28 kts 62°
2026-05-07 12:15 53.63286 9.99550 51 ft 13 kts 100°
2026-05-07 12:15 53.63278 9.99625 51 ft 3 kts 100°
2026-05-07 12:16 53.63275 9.99656 51 ft 2 kts 100°
2026-05-07 12:16 53.63273 9.99676 51 ft 3 kts 100°
2026-05-07 12:16 53.63275 9.99737 51 ft 8 kts 75°
2026-05-07 12:16 53.63309 9.99825 51 ft 11 kts 53°
2026-05-07 12:17 53.63364 9.99938 51 ft 14 kts 50°
2026-05-07 12:17 53.63427 10.00064 51 ft 10 kts 56°
2026-05-07 12:17 53.63405 10.00181 50 ft 12 kts 123°
2026-05-07 12:17 53.63329 10.00231 51 ft 12 kts 176°
2026-05-07 12:18 53.63251 10.00240 51 ft 11 kts 176°
2026-05-07 12:18 53.63195 10.00249 51 ft 5 kts 162°
2026-05-07 12:18 53.63191 10.00275 51 ft 2 kts 89°
2026-05-07 12:18 53.63193 10.00333 51 ft 6 kts 86°
2026-05-07 12:19 53.63195 10.00365 51 ft 0 kts 85°
2026-05-07 12:19 53.63195 10.00368 51 ft 0 kts 85°